This is the latest recevied weather packets stored in our database for station/object KQ4LLM. If no packets are shown the sender has not sent any weather packets the latest 10 day(s).
| Time | Temp. | Humidity | Pressure | Rain* | Wind** | Luminosity | Snow |
|---|---|---|---|---|---|---|---|
| 1787957567 | 25° C | 83% | - | 0 mm | - | - | - |
| 1787957263 | 24.44° C | 82% | - | 0 mm | - | - | - |
| 1787956961 | 24.44° C | 82% | - | 0 mm | - | - | - |
| 1787956656 | 23.89° C | 86% | - | 0 mm | - | - | - |
| 1787956351 | 23.33° C | 86% | - | 0 mm | - | - | - |
| 1787956047 | 23.33° C | 92% | - | 0 mm | - | - | - |
| 1787955742 | 22.78° C | 95% | - | 0 mm | - | - | - |
| 1787955438 | 22.78° C | 97% | - | 0 mm | - | - | - |
| 1787955136 | 22.78° C | 98% | - | 0 mm | - | - | - |
| 1787954833 | 22.78° C | 97% | - | 0 mm | - | - | - |
| 1787954528 | 22.22° C | 97% | - | 0 mm | - | - | - |
| 1787954228 | 22.22° C | 98% | - | 0 mm | - | - | - |
| 1787953928 | 21.67° C | 98% | - | 0 mm | - | - | - |
| 1787953626 | 21.67° C | 98% | - | 0 mm | - | - | - |
| 1787953321 | 21.67° C | 98% | - | 0 mm | - | - | - |
| 1787953020 | 21.11° C | 98% | - | 0 mm | - | - | - |
| 1787952719 | 21.11° C | 98% | - | 0 mm | - | - | - |
| 1787952414 | 20.56° C | 98% | - | 0 mm | - | - | - |
| 1787952110 | 20.56° C | 98% | - | 1.27 mm | - | - | - |
| 1787951809 | 20.56° C | 98% | - | 1.27 mm | - | - | - |
| 1787951504 | 20.56° C | 98% | - | 0 mm | - | - | - |
| 1787951201 | 20.56° C | 98% | - | 0 mm | - | - | - |
| 1787950896 | 20.56° C | 98% | - | 0 mm | - | - | - |
| 1787950592 | 21.11° C | 98% | - | 0 mm | - | - | - |
| 1787950287 | 21.67° C | 98% | - | 1.78 mm | - | - | - |
* Rain latest hour (hover to see other rain measurements)
** Current wind speed in m/s (hover to see current wind gust speed)